Flag for U.S.A. Weather past 2 weeks in Flagstaff, Arizona, U.S.A.

Now
40 °F

Clear.


Feels Like: 36 °F
Forecast: 32 / 52 °F
Wind: 6 mph from Northwest

Location: Flagstaff Pulliam Airport

Current Time: Dec 22, 2014 at 6:59:29 AM

Latest Report: Dec 22, 2014 at 5:57 AM


Visibility: 10 mi

Pressure: 29.95 "Hg

Humidity: 68%

Dew point: 30 °F

Location of FlagstaffLocation

Historic Weather in Flagstaff — Graph

°F

Flagstaff temperature yesterday

Maximum temperature yesterday: 53 °F (at 12:57 PM)
Minimum temperature yesterday: 27 °F (at 12:57 AM)
Average temperature yesterday: 41 °F

Past Weeks' High & Low Weather Summary

 TemperatureHumidityPressure
High53 °F (Dec 11, 12:57 PM)97% (Dec 8, 4:57 AM)30.36 "Hg (Dec 8, 4:57 AM)
Low11 °F (Dec 19, 5:57 AM)41% (Dec 14, 1:57 PM)29.84 "Hg (Dec 13, 3:57 AM)
Average34 °F79%30.11 "Hg
* Reported Dec 7 5:57 AM — Dec 22 5:57 AM, Flagstaff, Weather by CustomWeather, © 2014

Note: Actual official high and low records may vary slightly from our data, if they occured in-between our weather recording intervals... More about our weather records

Advertising

Flagstaff weather history for previous 24 hours

 ConditionsComfort  
Time TempWeatherWind HumidityBarometerVisibility
5:57 AM
Dec 22
40 °FClear.6 mph68%29.95 "Hg10 mi
4:57 AM42 °FClear.3 mph62%29.93 "Hg10 mi
3:57 AM40 °FClear.No wind68%29.93 "Hg10 mi
2:57 AM41 °FClear.8 mph67%29.93 "Hg10 mi
1:57 AM41 °FClear.3 mph67%29.94 "Hg10 mi
12:57 AM41 °FClear.5 mph65%29.95 "Hg10 mi
11:57 PM
Dec 21
43 °FClear.5 mph62%29.96 "Hg10 mi
10:57 PM43 °FClear.5 mph62%29.96 "Hg10 mi
9:57 PM42 °FClear.6 mph65%29.98 "Hg10 mi
8:57 PM42 °FClear.5 mph65%29.98 "Hg10 mi
7:57 PM43 °FClear.6 mph60%30.00 "Hg10 mi
6:57 PM43 °FClear.6 mph62%30.03 "Hg10 mi
5:57 PM44 °FClear.6 mph60%30.00 "Hg10 mi
4:57 PM46 °FSunny.5 mph56%29.99 "Hg10 mi
3:57 PM49 °FSunny.9 mph52%30.00 "Hg10 mi
2:57 PM51 °FSunny.9 mph46%29.97 "Hg10 mi
1:57 PM52 °FSunny.15 mph45%29.98 "Hg10 mi
12:57 PM53 °FSunny.12 mph45%29.99 "Hg10 mi
11:57 AM51 °FSunny.9 mph46%30.01 "Hg10 mi
10:57 AM49 °FSunny.8 mph48%30.01 "Hg10 mi
9:57 AM44 °FSunny.7 mph51%30.06 "Hg10 mi
8:57 AM39 °FSunny.7 mph55%30.06 "Hg10 mi
7:57 AM37 °FSunny.8 mph54%30.06 "Hg10 mi
6:57 AM31 °FClear.8 mph67%30.06 "Hg10 mi
Weather by CustomWeather, © 2014

See weather overviewHow to use our weather pages